Miscellaneous Local Product
Issued by NWS Hastings, NE

Home | Current Version | Previous Version | Graphics & Text | Print | Product List | Glossary On
Versions: 1 2 3 4 5 6 7 8 9 10 11 12 13 14 15 16 17 18 19 20 21 22 23 24 25 26 27 28 29 30 31 32 33 34 35 36 37 38 39 40 41 42 43 44 45 46 47 48 49 50
000
AXUS43 KGID 011902
MISGRI

GID CWA HOURLY WEATHER ROUNDUP
NATIONAL WEATHER SERVICE HASTINGS NE
200 PM CDT SUN MAY 01 2016

NOTE: "FAIR" INDICATES FEW OR NO CLOUDS BELOW 12,000 FEET WITH NO
SIGNIFICANT WEATHER AND/OR OBSTRUCTIONS TO VISIBILITY.

...SOUTH CENTRAL NEBRASKA...

CITY           SKY/WX    TMP DP  RH WIND       PRES   REMARKS
GRAND ISLAND   CLOUDY    45  39  79 N21       30.17R
HASTINGS       CLOUDY    46  39  76 N18       30.16S
KEARNEY        CLOUDY    48  39  71 N20       30.19S
ORD            CLOUDY    49  41  74 N20       30.19F
YORK           CLOUDY    45  39  81 NE20      30.15R
AURORA         CLOUDY    46  41  85 N20       30.16R
LEXINGTON      CLOUDY    49  39  69 N18       30.20F
HOLDREGE       CLOUDY    45  40  82 N16       30.20R
HEBRON         CLOUDY    47  41  77 N13       30.14R

...NEBRASKA PANHANDLE...

CITY           SKY/WX    TMP DP  RH WIND       PRES   REMARKS
CHADRON        MOSUNNY   54  31  41 N15G23    30.28F
ALLIANCE       CLOUDY    39  31  72 W5        30.28F
SCOTTSBLUFF    MOSUNNY   50  28  42 NW12G21   30.31F
SIDNEY         CLOUDY    42  31  64 N15       30.29F

...WESTERN AND NORTH CENTRAL NEBRASKA...

CITY           SKY/WX    TMP DP  RH WIND       PRES   REMARKS
VALENTINE      PTSUNNY   53  30  41 N16G25    30.25F
AINSWORTH      MOSUNNY   52  32  45 N18G30    30.23F
ONEILL         CLOUDY    50  38  64 N12G18    30.22S
BROKEN BOW     CLOUDY    50  39  66 N17G28    30.20S
IMPERIAL       PTSUNNY   51  34  52 N23G32    30.24F
NORTH PLATTE   SUNNY     51  36  56 N20G28    30.23F
MCCOOK         PTSUNNY   53  38  56 NE25      30.19F

...EASTERN NEBRASKA...

CITY           SKY/WX    TMP DP  RH WIND       PRES   REMARKS
NORFOLK        CLOUDY    47  40  76 N13       30.17S
SO SIOUX CITY  LGT RAIN  49  43  80 N16       30.15F
TEKAMAH        LGT RAIN  47  43  86 N18       30.14R
COLUMBUS       CLOUDY    46  36  66 N16       30.16S
ALBION         CLOUDY    44  42  91 N12G21    30.18S
OMAHA EPPLEY   LGT RAIN  46  44  93 N14       30.11R
OFFUTT AFB     LGT RAIN  47  45  92 N9        30.10R
MILLARD        CLOUDY    46  44  93 N3        30.12R
LINCOLN        CLOUDY    50  43  77 N24       30.12S
NEBRASKA CITY  CLOUDY    47  47 100 N13G20    30.08S FOG
BEATRICE       CLOUDY    47  43  85 N17       30.10S
FALLS CITY     CLOUDY    50  45  83 N12G20    30.06R

...NORTHERN KANSAS...

CITY           SKY/WX    TMP DP  RH WIND       PRES   REMARKS
GOODLAND       CLOUDY    50  33  52 N29       30.18F
HILL CITY      CLOUDY    50  40  68 N21G30    30.18F
NORTON         CLOUDY    48  37  66 N18G26    30.19
PHILLIPSBURG   CLOUDY    48  39  71 NW17G24   30.18F
SMITH CENTER   CLOUDY    46  39  76 N16       30.17F
BELOIT         CLOUDY    48  37  66 N17G26    30.13S
HAYS           CLOUDY    50  34  53 N23G30    30.15F
RUSSELL        CLOUDY    49  39  68 N21G29    30.13F
CONCORDIA      CLOUDY    50  41  71 N21G28    30.10F
SALINA         CLOUDY    52  43  71 N20       30.12S
TOPEKA         CLOUDY    58  45  62 NW10      30.03S



USA.gov is the U.S. government's official web portal to all federal, state and local government web resources and services.